Time,TemperatureF,DewpointF,PressureIn,WindDirection,WindDirectionDegrees,WindSpeedMPH,WindSpeedGustMPH,Humidity,HourlyPrecipIn,Conditions,Clouds,dailyrainin,SoftwareType,DateUTC
2013-05-04 00:01:00,38.1,31.5,30.16,NE,38,18.0,20.0,77,0.00,,,0.00,VWS V12.08,2013-05-04 05:01:00,
2013-05-04 00:06:00,38.0,31.8,30.16,ENE,67,17.0,20.0,78,0.00,,,0.00,VWS V12.08,2013-05-04 05:06:00,
2013-05-04 00:11:00,37.9,32.0,30.16,NNE,22,11.0,20.0,79,0.00,,,0.00,VWS V12.08,2013-05-04 05:11:00,
2013-05-04 00:16:00,37.8,31.9,30.16,NE,34,10.0,20.0,79,0.00,,,0.00,VWS V12.08,2013-05-04 05:16:00,
2013-05-04 00:21:00,37.7,31.8,30.16,NE,40,18.0,20.0,79,0.00,,,0.00,VWS V12.08,2013-05-04 05:21:00,
2013-05-04 00:26:00,37.6,32.0,30.16,NE,46,12.0,20.0,80,0.00,,,0.00,VWS V12.08,2013-05-04 05:26:00,
2013-05-04 00:31:00,37.5,31.9,30.15,NNE,32,11.0,14.0,80,0.00,,,0.00,VWS V12.08,2013-05-04 05:31:00,
2013-05-04 00:36:00,37.5,31.9,30.15,NNE,30,14.0,15.0,80,0.00,,,0.00,VWS V12.08,2013-05-04 05:36:00,
2013-05-04 00:41:00,37.4,31.8,30.15,NNW,348,17.0,19.0,80,0.00,,,0.00,VWS V12.08,2013-05-04 05:41:00,
2013-05-04 00:46:00,37.4,31.8,30.15,NNE,24,13.0,19.0,80,0.00,,,0.00,VWS V12.08,2013-05-04 05:46:00,
2013-05-04 00:51:00,37.3,32.0,30.14,NE,38,13.0,22.0,81,0.00,,,0.00,VWS V12.08,2013-05-04 05:51:00,
2013-05-04 00:56:00,37.2,31.9,30.14,NW,326,5.0,25.0,81,0.00,,,0.00,VWS V12.08,2013-05-04 05:56:00,
2013-05-04 01:01:00,37.1,31.8,30.14,NNE,28,18.0,18.0,81,0.00,,,0.00,VWS V12.08,2013-05-04 06:01:00,
2013-05-04 01:06:00,37.0,32.0,30.14,NNE,19,16.0,21.0,82,0.00,,,0.00,VWS V12.08,2013-05-04 06:06:00,
2013-05-04 01:11:00,36.9,31.9,30.14,NNE,31,10.0,21.0,82,0.00,,,0.00,VWS V12.08,2013-05-04 06:11:00,
2013-05-04 01:16:00,36.9,31.9,30.14,NNE,20,14.0,21.0,82,0.00,,,0.00,VWS V12.08,2013-05-04 06:16:00,
2013-05-04 01:21:00,36.9,31.9,30.15,NE,38,10.0,21.0,82,0.00,,,0.00,VWS V12.08,2013-05-04 06:21:00,
2013-05-04 01:26:00,36.9,31.9,30.15,NNW,344,11.0,21.0,82,0.00,,,0.00,VWS V12.08,2013-05-04 06:26:00,
2013-05-04 01:31:00,36.9,31.9,30.15,NNE,31,11.0,16.0,82,0.00,,,0.00,VWS V12.08,2013-05-04 06:31:00,
2013-05-04 01:36:00,36.8,31.8,30.14,NNW,341,10.0,17.0,82,0.00,,,0.00,VWS V12.08,2013-05-04 06:36:00,
2013-05-04 01:41:00,36.8,31.8,30.14,NE,50,6.0,19.0,82,0.00,,,0.00,VWS V12.08,2013-05-04 06:41:00,
2013-05-04 01:46:00,36.7,32.0,30.14,NNW,344,11.0,19.0,83,0.00,,,0.00,VWS V12.08,2013-05-04 06:46:00,
2013-05-04 01:51:00,36.8,32.1,30.14,NE,44,11.0,20.0,83,0.00,,,0.00,VWS V12.08,2013-05-04 06:51:00,
2013-05-04 01:56:00,36.8,32.1,30.14,NE,40,5.0,20.0,83,0.00,,,0.00,VWS V12.08,2013-05-04 06:56:00,
2013-05-04 02:01:00,36.8,32.1,30.14,NNW,343,5.0,11.0,83,0.00,,,0.00,VWS V12.08,2013-05-04 07:01:00,
2013-05-04 02:06:00,36.9,31.9,30.14,NNE,25,12.0,21.0,82,0.00,,,0.00,VWS V12.08,2013-05-04 07:06:00,
2013-05-04 02:11:00,36.9,32.2,30.13,NNE,13,11.0,23.0,83,0.00,,,0.00,VWS V12.08,2013-05-04 07:11:00,
2013-05-04 02:16:00,36.9,32.2,30.13,NNE,31,19.0,23.0,83,0.00,,,0.00,VWS V12.08,2013-05-04 07:16:00,
2013-05-04 02:21:00,36.8,32.1,30.13,NNE,32,12.0,23.0,83,0.00,,,0.00,VWS V12.08,2013-05-04 07:21:00,
2013-05-04 02:26:00,36.8,32.4,30.13,NNE,22,16.0,23.0,84,0.00,,,0.00,VWS V12.08,2013-05-04 07:26:00,
2013-05-04 02:31:00,36.8,32.4,30.13,NNW,336,16.0,20.0,84,0.00,,,0.00,VWS V12.08,2013-05-04 07:31:00,
2013-05-04 02:36:00,36.8,32.4,30.13,NNE,18,10.0,23.0,84,0.00,,,0.00,VWS V12.08,2013-05-04 07:36:00,
2013-05-04 02:41:00,36.8,32.4,30.13,NNE,26,14.0,24.0,84,0.00,,,0.00,VWS V12.08,2013-05-04 07:41:00,
2013-05-04 02:46:00,36.8,32.7,30.12,NE,40,16.0,24.0,85,0.00,,,0.00,VWS V12.08,2013-05-04 07:46:00,
2013-05-04 02:51:00,36.8,32.7,30.12,NNW,346,12.0,24.0,85,0.00,,,0.00,VWS V12.08,2013-05-04 07:51:00,
2013-05-04 02:56:00,36.7,32.6,30.12,NW,321,14.0,24.0,85,0.00,,,0.00,VWS V12.08,2013-05-04 07:56:00,
2013-05-04 03:01:00,36.7,32.9,30.12,NE,40,7.0,8.0,86,0.00,,,0.00,VWS V12.08,2013-05-04 08:01:00,
2013-05-04 03:06:00,36.6,33.1,30.12,NNE,12,16.0,20.0,87,0.00,,,0.00,VWS V12.08,2013-05-04 08:06:00,
2013-05-04 03:11:00,36.5,33.3,30.12,NE,50,23.0,27.0,88,0.00,,,0.00,VWS V12.08,2013-05-04 08:11:00,
2013-05-04 03:16:00,36.2,33.3,30.12,NE,51,19.0,27.0,89,0.00,,,0.00,VWS V12.08,2013-05-04 08:16:00,
2013-05-04 03:21:00,35.9,33.3,30.13,NE,34,5.0,27.0,90,0.00,,,0.00,VWS V12.08,2013-05-04 08:21:00,
2013-05-04 03:26:00,35.9,33.3,30.13,NE,40,11.0,27.0,90,0.00,,,0.00,VWS V12.08,2013-05-04 08:26:00,
2013-05-04 03:31:00,35.5,33.1,30.13,NNE,28,19.0,19.0,91,0.00,,,0.00,VWS V12.08,2013-05-04 08:31:00,
2013-05-04 03:36:00,35.2,33.1,30.13,NNE,31,12.0,21.0,92,0.00,,,0.00,VWS V12.08,2013-05-04 08:36:00,
2013-05-04 03:41:00,35.0,32.9,30.13,NNE,28,16.0,21.0,92,0.00,,,0.00,VWS V12.08,2013-05-04 08:41:00,
2013-05-04 03:46:00,35.0,32.9,30.12,NNE,27,17.0,22.0,92,0.00,,,0.00,VWS V12.08,2013-05-04 08:46:00,
2013-05-04 03:51:00,35.3,32.7,30.12,North,355,12.0,23.0,90,0.00,,,0.00,VWS V12.08,2013-05-04 08:51:00,
2013-05-04 03:56:00,35.5,32.6,30.12,NNE,28,22.0,24.0,89,0.00,,,0.00,VWS V12.08,2013-05-04 08:56:00,
2013-05-04 04:01:00,35.7,32.2,30.12,NNE,26,13.0,19.0,87,0.00,,,0.00,VWS V12.08,2013-05-04 09:01:00,
2013-05-04 04:06:00,35.8,32.0,30.12,NE,36,18.0,22.0,86,0.00,,,0.00,VWS V12.08,2013-05-04 09:06:00,
2013-05-04 04:11:00,35.7,32.2,30.12,North,5,16.0,23.0,87,0.00,,,0.00,VWS V12.08,2013-05-04 09:11:00,
2013-05-04 04:16:00,35.6,32.1,30.12,NE,44,17.0,23.0,87,0.00,,,0.00,VWS V12.08,2013-05-04 09:16:00,
2013-05-04 04:21:00,35.5,32.3,30.12,NE,34,16.0,23.0,88,0.00,,,0.00,VWS V12.08,2013-05-04 09:21:00,
2013-05-04 04:26:00,35.5,32.6,30.12,NNE,31,14.0,24.0,89,0.00,,,0.00,VWS V12.08,2013-05-04 09:26:00,
2013-05-04 04:31:00,35.3,32.7,30.12,NW,319,10.0,14.0,90,0.00,,,0.00,VWS V12.08,2013-05-04 09:31:00,
2013-05-04 04:36:00,35.2,32.6,30.12,SW,215,7.0,26.0,90,0.00,,,0.00,VWS V12.08,2013-05-04 09:36:00,
2013-05-04 04:41:00,35.1,32.7,30.12,NNE,26,18.0,26.0,91,0.00,,,0.00,VWS V12.08,2013-05-04 09:41:00,
2013-05-04 04:46:00,35.1,32.7,30.12,NE,40,17.0,26.0,91,0.00,,,0.00,VWS V12.08,2013-05-04 09:46:00,
2013-05-04 04:51:00,35.1,32.5,30.12,NNE,20,17.0,26.0,90,0.00,,,0.00,VWS V12.08,2013-05-04 09:51:00,
2013-05-04 04:56:00,35.2,32.6,30.12,NNE,31,10.0,26.0,90,0.00,,,0.00,VWS V12.08,2013-05-04 09:56:00,
2013-05-04 05:00:00,35.2,32.3,30.12,NW,320,11.0,11.0,89,0.00,,,0.00,VWS V12.08,2013-05-04 10:00:00,
2013-05-04 05:05:00,35.3,32.1,30.12,NE,46,18.0,29.0,88,0.00,,,0.00,VWS V12.08,2013-05-04 10:05:00,
2013-05-04 05:10:00,35.3,32.1,30.13,NE,48,12.0,29.0,88,0.00,,,0.00,VWS V12.08,2013-05-04 10:10:00,
2013-05-04 05:15:00,35.3,32.1,30.13,NNE,22,15.0,29.0,88,0.00,,,0.00,VWS V12.08,2013-05-04 10:15:00,
2013-05-04 05:20:00,35.3,32.1,30.13,WNW,302,13.0,29.0,88,0.00,,,0.00,VWS V12.08,2013-05-04 10:20:00,
2013-05-04 05:25:00,35.3,32.4,30.13,NNE,13,13.0,29.0,89,0.00,,,0.00,VWS V12.08,2013-05-04 10:25:00,
2013-05-04 05:30:00,35.3,32.7,30.13,North,11,20.0,20.0,90,0.00,,,0.00,VWS V12.08,2013-05-04 10:30:00,
2013-05-04 05:35:00,35.2,32.6,30.13,NE,43,14.0,21.0,90,0.00,,,0.00,VWS V12.08,2013-05-04 10:35:00,
2013-05-04 05:40:00,35.2,32.6,30.13,NNW,336,11.0,24.0,90,0.00,,,0.00,VWS V12.08,2013-05-04 10:40:00,
2013-05-04 05:45:00,35.1,32.7,30.13,NE,43,19.0,24.0,91,0.00,,,0.00,VWS V12.08,2013-05-04 10:45:00,
2013-05-04 05:50:00,35.2,32.8,30.12,NNE,23,13.0,25.0,91,0.00,,,0.00,VWS V12.08,2013-05-04 10:50:00,
2013-05-04 05:55:00,35.3,32.7,30.12,WNW,302,5.0,25.0,90,0.00,,,0.00,VWS V12.08,2013-05-04 10:55:00,
2013-05-04 06:00:00,35.4,32.8,30.12,North,11,20.0,20.0,90,0.00,,,0.00,VWS V12.08,2013-05-04 11:00:00,
2013-05-04 06:05:00,35.5,32.9,30.12,NNE,13,17.0,24.0,90,0.00,,,0.00,VWS V12.08,2013-05-04 11:05:00,
2013-05-04 06:10:00,35.3,32.7,30.12,NNE,23,22.0,24.0,90,0.00,,,0.00,VWS V12.08,2013-05-04 11:10:00,
2013-05-04 06:15:00,35.2,32.6,30.12,NE,38,12.0,24.0,90,0.00,,,0.00,VWS V12.08,2013-05-04 11:15:00,
2013-05-04 06:20:00,35.2,32.6,30.12,NE,51,17.0,25.0,90,0.00,,,0.00,VWS V12.08,2013-05-04 11:20:00,
2013-05-04 06:25:00,35.2,32.6,30.13,NW,323,20.0,25.0,90,0.00,,,0.00,VWS V12.08,2013-05-04 11:25:00,
2013-05-04 06:30:00,35.2,32.0,30.13,ESE,106,7.0,7.0,88,0.00,,,0.00,VWS V12.08,2013-05-04 11:30:00,
2013-05-04 06:35:00,35.2,31.7,30.13,West,272,8.0,23.0,87,0.00,,,0.00,VWS V12.08,2013-05-04 11:35:00,
2013-05-04 06:40:00,35.0,31.8,30.14,WNW,292,8.0,23.0,88,0.00,,,0.00,VWS V12.08,2013-05-04 11:40:00,
2013-05-04 06:45:00,34.9,32.0,30.14,NNW,336,12.0,23.0,89,0.00,,,0.00,VWS V12.08,2013-05-04 11:45:00,
2013-05-04 06:51:00,34.8,32.2,30.14,NNE,28,17.0,26.0,90,0.00,,,0.00,VWS V12.08,2013-05-04 11:51:00,
2013-05-04 06:56:00,34.8,32.2,30.14,NNE,26,11.0,26.0,90,0.00,,,0.00,VWS V12.08,2013-05-04 11:56:00,
2013-05-04 07:01:00,34.7,32.3,30.13,ENE,67,18.0,21.0,91,0.00,,,0.00,VWS V12.08,2013-05-04 12:01:00,
2013-05-04 07:07:00,34.7,32.3,30.13,NNE,18,17.0,23.0,91,0.00,,,0.00,VWS V12.08,2013-05-04 12:07:00,
2013-05-04 07:12:00,34.7,32.3,30.13,NW,323,10.0,26.0,91,0.00,,,0.00,VWS V12.08,2013-05-04 12:12:00,
2013-05-04 07:17:00,34.7,32.3,30.13,NE,43,25.0,28.0,91,0.00,,,0.00,VWS V12.08,2013-05-04 12:17:00,
2013-05-04 07:22:00,34.7,32.3,30.14,NE,46,14.0,28.0,91,0.00,,,0.00,VWS V12.08,2013-05-04 12:22:00,
2013-05-04 07:27:00,34.7,32.3,30.13,North,5,22.0,28.0,91,0.00,,,0.00,VWS V12.08,2013-05-04 12:27:00,
2013-05-04 07:33:00,34.7,32.3,30.13,NNE,26,12.0,25.0,91,0.00,,,0.00,VWS V12.08,2013-05-04 12:33:00,
2013-05-04 07:38:00,34.8,32.5,30.13,East,94,15.0,25.0,91,0.00,,,0.00,VWS V12.08,2013-05-04 12:38:00,
2013-05-04 07:43:00,34.8,32.7,30.13,NNE,22,15.0,27.0,92,0.00,,,0.00,VWS V12.08,2013-05-04 12:43:00,
2013-05-04 07:48:00,34.8,32.7,30.13,NNE,26,7.0,27.0,92,0.00,,,0.00,VWS V12.08,2013-05-04 12:48:00,
2013-05-04 07:53:00,34.9,32.8,30.13,North,5,18.0,27.0,92,0.00,,,0.00,VWS V12.08,2013-05-04 12:53:00,
2013-05-04 07:58:00,34.9,32.8,30.13,NNE,23,16.0,27.0,92,0.00,,,0.00,VWS V12.08,2013-05-04 12:58:00,
2013-05-04 08:03:00,34.9,32.8,30.12,NE,46,5.0,20.0,92,0.00,,,0.00,VWS V12.08,2013-05-04 13:03:00,
2013-05-04 08:04:00,34.9,32.8,30.12,NNW,343,11.0,20.0,92,0.00,,,0.00,VWS V12.08,2013-05-04 13:04:00,
2013-05-04 08:09:00,34.9,33.1,30.12,NE,50,7.0,25.0,93,0.00,,,0.00,VWS V12.08,2013-05-04 13:09:00,
2013-05-04 08:14:00,35.1,33.3,30.12,NNW,333,10.0,25.0,93,0.00,,,0.00,VWS V12.08,2013-05-04 13:14:00,
2013-05-04 08:19:00,35.2,33.1,30.12,NNE,26,10.0,25.0,92,0.00,,,0.00,VWS V12.08,2013-05-04 13:19:00,
2013-05-04 08:24:00,35.2,33.1,30.12,NNE,19,14.0,25.0,92,0.00,,,0.00,VWS V12.08,2013-05-04 13:24:00,
2013-05-04 08:29:00,35.3,33.2,30.11,ENE,57,11.0,25.0,92,0.00,,,0.00,VWS V12.08,2013-05-04 13:29:00,
2013-05-04 08:33:00,35.5,33.4,30.11,North,11,24.0,26.0,92,0.00,,,0.00,VWS V12.08,2013-05-04 13:33:00,
2013-05-04 08:38:00,35.5,33.1,30.11,East,90,14.0,29.0,91,0.00,,,0.00,VWS V12.08,2013-05-04 13:38:00,
2013-05-04 08:43:00,35.5,33.1,30.11,NNE,18,22.0,29.0,91,0.00,,,0.00,VWS V12.08,2013-05-04 13:43:00,
2013-05-04 08:48:00,35.7,33.3,30.11,North,5,16.0,31.0,91,0.00,,,0.00,VWS V12.08,2013-05-04 13:48:00,
2013-05-04 08:53:00,35.7,33.3,30.11,ENE,62,15.0,31.0,91,0.00,,,0.00,VWS V12.08,2013-05-04 13:53:00,
2013-05-04 08:58:00,35.7,33.6,30.12,North,349,15.0,31.0,92,0.00,,,0.00,VWS V12.08,2013-05-04 13:58:00,
2013-05-04 09:03:00,35.7,33.6,30.12,NNW,348,6.0,21.0,92,0.00,,,0.00,VWS V12.08,2013-05-04 14:03:00,
2013-05-04 09:08:00,35.6,33.5,30.13,WNW,294,13.0,24.0,92,0.01,,,0.01,VWS V12.08,2013-05-04 14:08:00,
2013-05-04 09:13:00,35.7,33.6,30.13,NE,34,11.0,25.0,92,0.01,,,0.01,VWS V12.08,2013-05-04 14:13:00,
2013-05-04 09:18:00,35.7,33.6,30.13,NNE,25,17.0,26.0,92,0.01,,,0.01,VWS V12.08,2013-05-04 14:18:00,
2013-05-04 09:23:00,35.7,33.3,30.13,NNE,31,28.0,28.0,91,0.01,,,0.01,VWS V12.08,2013-05-04 14:23:00,
2013-05-04 09:28:00,35.7,33.3,30.13,NNE,28,15.0,28.0,91,0.01,,,0.01,VWS V12.08,2013-05-04 14:28:00,
2013-05-04 09:33:00,35.8,33.4,30.13,NNE,27,12.0,25.0,91,0.01,,,0.01,VWS V12.08,2013-05-04 14:33:00,
2013-05-04 09:38:00,35.9,33.5,30.14,NE,36,18.0,25.0,91,0.01,,,0.01,VWS V12.08,2013-05-04 14:38:00,
2013-05-04 09:43:00,36.0,33.6,30.14,NNE,31,17.0,26.0,91,0.01,,,0.01,VWS V12.08,2013-05-04 14:43:00,
2013-05-04 09:48:00,36.2,33.8,30.14,ENE,57,15.0,26.0,91,0.01,,,0.01,VWS V12.08,2013-05-04 14:48:00,
2013-05-04 09:53:00,36.3,33.9,30.15,NNE,20,13.0,26.0,91,0.01,,,0.01,VWS V12.08,2013-05-04 14:53:00,
2013-05-04 09:58:00,36.4,34.0,30.15,ENE,58,17.0,26.0,91,0.01,,,0.01,VWS V12.08,2013-05-04 14:58:00,
2013-05-04 10:03:00,36.5,34.1,30.15,NNW,337,11.0,17.0,91,0.01,,,0.01,VWS V12.08,2013-05-04 15:03:00,
2013-05-04 10:08:00,36.4,34.0,30.15,NE,40,14.0,21.0,91,0.01,,,0.01,VWS V12.08,2013-05-04 15:08:00,
2013-05-04 10:13:00,36.4,34.0,30.15,NE,34,8.0,21.0,91,0.01,,,0.01,VWS V12.08,2013-05-04 15:13:00,
2013-05-04 10:18:00,36.4,34.0,30.16,NE,45,17.0,24.0,91,0.01,,,0.01,VWS V12.08,2013-05-04 15:18:00,
2013-05-04 10:23:00,36.3,33.9,30.16,NE,51,14.0,24.0,91,0.01,,,0.01,VWS V12.08,2013-05-04 15:23:00,
2013-05-04 10:28:00,36.4,34.0,30.15,NE,34,17.0,24.0,91,0.01,,,0.01,VWS V12.08,2013-05-04 15:28:00,
2013-05-04 10:33:00,36.4,34.0,30.16,East,85,4.0,23.0,91,0.00,,,0.01,VWS V12.08,2013-05-04 15:33:00,
2013-05-04 10:38:00,36.4,34.3,30.16,NNE,28,18.0,24.0,92,0.00,,,0.01,VWS V12.08,2013-05-04 15:38:00,
2013-05-04 10:43:00,36.3,34.5,30.16,NNE,25,16.0,25.0,93,0.00,,,0.01,VWS V12.08,2013-05-04 15:43:00,
2013-05-04 10:48:00,36.3,34.5,30.16,NE,36,13.0,25.0,93,0.00,,,0.01,VWS V12.08,2013-05-04 15:48:00,
2013-05-04 10:53:00,36.4,34.6,30.16,NW,320,6.0,25.0,93,0.00,,,0.01,VWS V12.08,2013-05-04 15:53:00,
2013-05-04 10:58:00,36.4,34.6,30.16,NE,34,14.0,25.0,93,0.00,,,0.01,VWS V12.08,2013-05-04 15:58:00,
2013-05-04 11:03:00,36.5,34.9,30.16,NE,44,7.0,20.0,94,0.00,,,0.01,VWS V12.08,2013-05-04 16:03:00,
2013-05-04 11:08:00,36.7,35.1,30.16,NE,43,15.0,26.0,94,0.00,,,0.01,VWS V12.08,2013-05-04 16:08:00,
2013-05-04 11:13:00,36.8,35.0,30.16,SSW,207,9.0,26.0,93,0.01,,,0.02,VWS V12.08,2013-05-04 16:13:00,
2013-05-04 11:18:00,36.9,35.3,30.16,NNW,332,9.0,26.0,94,0.01,,,0.02,VWS V12.08,2013-05-04 16:18:00,
2013-05-04 11:23:00,36.9,35.1,30.16,NW,325,12.0,26.0,93,0.01,,,0.02,VWS V12.08,2013-05-04 16:23:00,
2013-05-04 11:28:00,36.7,34.9,30.16,NE,40,13.0,26.0,93,0.01,,,0.02,VWS V12.08,2013-05-04 16:28:00,
2013-05-04 11:33:00,36.8,35.0,30.16,NNE,32,12.0,23.0,93,0.01,,,0.02,VWS V12.08,2013-05-04 16:33:00,
2013-05-04 11:38:00,36.9,35.3,30.15,NE,38,10.0,24.0,94,0.01,,,0.02,VWS V12.08,2013-05-04 16:38:00,
2013-05-04 11:43:00,37.1,35.5,30.16,NNE,16,21.0,24.0,94,0.01,,,0.02,VWS V12.08,2013-05-04 16:43:00,
2013-05-04 11:48:00,37.0,35.2,30.15,NNE,23,16.0,24.0,93,0.01,,,0.02,VWS V12.08,2013-05-04 16:48:00,
2013-05-04 11:53:00,37.0,35.4,30.16,NNE,17,18.0,24.0,94,0.02,,,0.03,VWS V12.08,2013-05-04 16:53:00,
2013-05-04 11:58:00,36.9,35.3,30.16,NE,38,7.0,24.0,94,0.02,,,0.03,VWS V12.08,2013-05-04 16:58:00,
2013-05-04 12:03:00,36.9,35.3,30.16,NE,38,17.0,24.0,94,0.02,,,0.03,VWS V12.08,2013-05-04 17:03:00,
2013-05-04 12:08:00,36.9,35.3,30.16,NNE,16,7.0,24.0,94,0.02,,,0.03,VWS V12.08,2013-05-04 17:08:00,
2013-05-04 12:13:00,37.0,35.4,30.15,WNW,300,15.0,24.0,94,0.02,,,0.04,VWS V12.08,2013-05-04 17:13:00,
2013-05-04 12:18:00,36.9,35.6,30.15,NNW,335,18.0,24.0,95,0.03,,,0.04,VWS V12.08,2013-05-04 17:18:00,
2013-05-04 12:23:00,37.0,35.7,30.15,NNE,28,11.0,25.0,95,0.03,,,0.04,VWS V12.08,2013-05-04 17:23:00,
2013-05-04 12:28:00,37.2,35.9,30.15,NNW,338,16.0,25.0,95,0.03,,,0.04,VWS V12.08,2013-05-04 17:28:00,
2013-05-04 12:33:00,37.1,35.8,30.15,NNE,19,18.0,22.0,95,0.02,,,0.04,VWS V12.08,2013-05-04 17:33:00,
2013-05-04 12:38:00,37.0,35.7,30.16,NW,321,3.0,25.0,95,0.02,,,0.04,VWS V12.08,2013-05-04 17:38:00,
2013-05-04 12:43:00,37.1,35.8,30.16,NE,35,12.0,25.0,95,0.02,,,0.04,VWS V12.08,2013-05-04 17:43:00,
2013-05-04 12:48:00,37.0,35.7,30.16,NNW,333,4.0,25.0,95,0.02,,,0.04,VWS V12.08,2013-05-04 17:48:00,
2013-05-04 12:53:00,37.1,36.1,30.17,North,351,13.0,25.0,96,0.02,,,0.04,VWS V12.08,2013-05-04 17:53:00,
2013-05-04 12:58:00,37.1,36.1,30.17,NNE,20,18.0,25.0,96,0.02,,,0.04,VWS V12.08,2013-05-04 17:58:00,
2013-05-04 13:03:00,37.0,36.0,30.16,NNW,329,9.0,21.0,96,0.02,,,0.05,VWS V12.08,2013-05-04 18:03:00,
2013-05-04 13:08:00,37.1,36.1,30.16,NNW,340,17.0,24.0,96,0.02,,,0.05,VWS V12.08,2013-05-04 18:08:00,
2013-05-04 13:13:00,37.2,36.2,30.16,NNE,24,14.0,24.0,96,0.02,,,0.05,VWS V12.08,2013-05-04 18:13:00,
2013-05-04 13:18:00,37.3,36.3,30.17,NNE,25,8.0,24.0,96,0.02,,,0.05,VWS V12.08,2013-05-04 18:18:00,
2013-05-04 13:23:00,37.5,36.5,30.17,NNE,13,7.0,24.0,96,0.02,,,0.05,VWS V12.08,2013-05-04 18:23:00,
2013-05-04 13:28:00,37.5,36.5,30.17,NNE,29,16.0,24.0,96,0.02,,,0.05,VWS V12.08,2013-05-04 18:28:00,
2013-05-04 13:33:00,37.7,36.7,30.17,North,349,11.0,15.0,96,0.01,,,0.05,VWS V12.08,2013-05-04 18:33:00,
2013-05-04 13:38:00,37.7,36.7,30.17,NE,34,12.0,22.0,96,0.02,,,0.06,VWS V12.08,2013-05-04 18:38:00,
2013-05-04 13:43:00,37.8,36.8,30.17,NE,40,15.0,22.0,96,0.02,,,0.06,VWS V12.08,2013-05-04 18:43:00,
2013-05-04 13:48:00,37.8,36.8,30.17,NNE,27,13.0,22.0,96,0.02,,,0.06,VWS V12.08,2013-05-04 18:48:00,
2013-05-04 13:53:00,37.8,36.8,30.17,NNE,24,7.0,22.0,96,0.02,,,0.06,VWS V12.08,2013-05-04 18:53:00,
2013-05-04 13:58:00,37.9,36.9,30.17,NNE,24,10.0,22.0,96,0.02,,,0.06,VWS V12.08,2013-05-04 18:58:00,
2013-05-04 14:03:00,38.0,37.2,30.17,NE,40,15.0,15.0,97,0.02,,,0.06,VWS V12.08,2013-05-04 19:03:00,
2013-05-04 14:08:00,37.8,36.8,30.17,NE,51,13.0,21.0,96,0.02,,,0.06,VWS V12.08,2013-05-04 19:08:00,
2013-05-04 14:13:00,37.8,36.8,30.17,North,360,15.0,21.0,96,0.02,,,0.06,VWS V12.08,2013-05-04 19:13:00,
2013-05-04 14:18:00,37.9,36.9,30.17,ENE,59,10.0,23.0,96,0.02,,,0.06,VWS V12.08,2013-05-04 19:18:00,
2013-05-04 14:23:00,37.8,36.8,30.17,NNE,22,14.0,23.0,96,0.02,,,0.06,VWS V12.08,2013-05-04 19:23:00,
2013-05-04 14:28:00,37.7,36.7,30.17,NE,44,9.0,23.0,96,0.02,,,0.06,VWS V12.08,2013-05-04 19:28:00,
2013-05-04 14:33:00,37.9,37.1,30.17,NW,319,11.0,20.0,97,0.01,,,0.06,VWS V12.08,2013-05-04 19:33:00,
2013-05-04 14:38:00,37.8,36.8,30.17,NE,40,15.0,20.0,96,0.01,,,0.06,VWS V12.08,2013-05-04 19:38:00,
2013-05-04 14:43:00,37.9,36.9,30.17,ENE,78,7.0,20.0,96,0.01,,,0.06,VWS V12.08,2013-05-04 19:43:00,
2013-05-04 14:48:00,37.9,37.1,30.17,NNE,30,21.0,21.0,97,0.01,,,0.06,VWS V12.08,2013-05-04 19:48:00,
2013-05-04 14:53:00,38.0,37.2,30.17,NNE,16,7.0,21.0,97,0.01,,,0.06,VWS V12.08,2013-05-04 19:53:00,
2013-05-04 14:58:00,38.2,37.4,30.18,NNE,23,11.0,21.0,97,0.01,,,0.06,VWS V12.08,2013-05-04 19:58:00,
2013-05-04 15:03:00,38.2,37.2,30.17,NE,43,12.0,18.0,96,0.00,,,0.06,VWS V12.08,2013-05-04 20:03:00,
2013-05-04 15:08:00,38.2,37.2,30.17,WSW,252,3.0,22.0,96,0.00,,,0.06,VWS V12.08,2013-05-04 20:08:00,
2013-05-04 15:13:00,38.3,37.3,30.17,NNW,348,9.0,22.0,96,0.00,,,0.06,VWS V12.08,2013-05-04 20:13:00,
2013-05-04 15:18:00,38.3,37.3,30.17,NNE,26,18.0,22.0,96,0.00,,,0.06,VWS V12.08,2013-05-04 20:18:00,
2013-05-04 15:23:00,38.4,37.4,30.17,NNE,31,19.0,22.0,96,0.00,,,0.06,VWS V12.08,2013-05-04 20:23:00,
2013-05-04 15:28:00,38.5,37.2,30.17,NNW,344,18.0,22.0,95,0.00,,,0.06,VWS V12.08,2013-05-04 20:28:00,
2013-05-04 15:33:00,38.7,37.4,30.17,NE,43,13.0,22.0,95,0.00,,,0.06,VWS V12.08,2013-05-04 20:33:00,
2013-05-04 15:38:00,38.9,37.6,30.17,NNW,339,13.0,22.0,95,0.00,,,0.06,VWS V12.08,2013-05-04 20:38:00,
2013-05-04 15:43:00,39.0,37.4,30.16,NNE,18,16.0,23.0,94,0.00,,,0.06,VWS V12.08,2013-05-04 20:43:00,
2013-05-04 15:48:00,39.2,37.3,30.16,NNE,22,16.0,23.0,93,0.00,,,0.06,VWS V12.08,2013-05-04 20:48:00,
2013-05-04 15:53:00,39.3,37.5,30.17,NNE,30,17.0,23.0,93,0.00,,,0.06,VWS V12.08,2013-05-04 20:53:00,
2013-05-04 15:58:00,39.6,37.8,30.17,ENE,78,5.0,23.0,93,0.00,,,0.06,VWS V12.08,2013-05-04 20:58:00,
2013-05-04 16:03:00,39.5,37.4,30.17,ENE,59,12.0,21.0,92,0.00,,,0.06,VWS V12.08,2013-05-04 21:03:00,
2013-05-04 16:08:00,39.6,37.5,30.17,North,351,11.0,21.0,92,0.00,,,0.06,VWS V12.08,2013-05-04 21:08:00,
2013-05-04 16:13:00,39.6,37.5,30.16,NE,41,12.0,23.0,92,0.00,,,0.06,VWS V12.08,2013-05-04 21:13:00,
2013-05-04 16:18:00,39.7,37.3,30.16,NNE,32,16.0,23.0,91,0.00,,,0.06,VWS V12.08,2013-05-04 21:18:00,
2013-05-04 16:23:00,39.7,37.3,30.16,North,5,5.0,23.0,91,0.00,,,0.06,VWS V12.08,2013-05-04 21:23:00,
2013-05-04 16:28:00,40.0,37.6,30.16,NNE,26,15.0,23.0,91,0.00,,,0.06,VWS V12.08,2013-05-04 21:28:00,
2013-05-04 16:33:00,40.0,37.6,30.17,North,350,18.0,20.0,91,0.00,,,0.06,VWS V12.08,2013-05-04 21:33:00,
2013-05-04 16:38:00,40.1,37.7,30.17,NNE,18,12.0,20.0,91,0.00,,,0.06,VWS V12.08,2013-05-04 21:38:00,
2013-05-04 16:43:00,40.1,37.7,30.17,South,190,3.0,20.0,91,0.00,,,0.06,VWS V12.08,2013-05-04 21:43:00,
2013-05-04 16:48:00,40.1,37.7,30.17,NNE,32,13.0,20.0,91,0.00,,,0.06,VWS V12.08,2013-05-04 21:48:00,
2013-05-04 16:53:00,40.2,37.8,30.17,NNE,25,13.0,20.0,91,0.00,,,0.06,VWS V12.08,2013-05-04 21:53:00,
2013-05-04 16:58:00,40.2,37.8,30.18,NE,38,7.0,20.0,91,0.00,,,0.06,VWS V12.08,2013-05-04 21:58:00,
2013-05-04 17:03:00,40.1,37.4,30.18,North,11,9.0,14.0,90,0.00,,,0.06,VWS V12.08,2013-05-04 22:03:00,
2013-05-04 17:08:00,40.1,37.4,30.18,NNW,331,5.0,18.0,90,0.00,,,0.06,VWS V12.08,2013-05-04 22:08:00,
2013-05-04 17:13:00,40.2,37.5,30.18,NNE,12,15.0,19.0,90,0.00,,,0.06,VWS V12.08,2013-05-04 22:13:00,
2013-05-04 17:18:00,40.2,37.5,30.18,ENE,75,6.0,19.0,90,0.00,,,0.06,VWS V12.08,2013-05-04 22:18:00,
2013-05-04 17:23:00,40.3,37.6,30.18,NE,36,17.0,19.0,90,0.00,,,0.06,VWS V12.08,2013-05-04 22:23:00,
2013-05-04 17:28:00,40.4,37.7,30.18,North,351,11.0,19.0,90,0.00,,,0.06,VWS V12.08,2013-05-04 22:28:00,
2013-05-04 17:33:00,40.3,37.6,30.18,NNE,28,5.0,16.0,90,0.00,,,0.06,VWS V12.08,2013-05-04 22:33:00,
2013-05-04 17:38:00,40.3,37.6,30.18,South,178,5.0,16.0,90,0.00,,,0.06,VWS V12.08,2013-05-04 22:38:00,
2013-05-04 17:43:00,40.3,37.6,30.18,NE,38,12.0,18.0,90,0.00,,,0.06,VWS V12.08,2013-05-04 22:43:00,
2013-05-04 17:48:00,40.2,37.5,30.18,North,350,7.0,18.0,90,0.00,,,0.06,VWS V12.08,2013-05-04 22:48:00,
2013-05-04 17:53:00,40.2,37.5,30.18,NNE,23,13.0,18.0,90,0.00,,,0.06,VWS V12.08,2013-05-04 22:53:00,
2013-05-04 17:58:00,40.2,37.8,30.18,NE,35,12.0,18.0,91,0.00,,,0.06,VWS V12.08,2013-05-04 22:58:00,
2013-05-04 18:03:00,40.3,37.9,30.18,NNW,338,7.0,11.0,91,0.00,,,0.06,VWS V12.08,2013-05-04 23:03:00,
2013-05-04 18:08:00,40.4,38.0,30.18,NW,325,9.0,18.0,91,0.00,,,0.06,VWS V12.08,2013-05-04 23:08:00,
2013-05-04 18:13:00,40.3,37.9,30.18,NE,42,11.0,18.0,91,0.00,,,0.06,VWS V12.08,2013-05-04 23:13:00,
2013-05-04 18:18:00,40.4,38.0,30.18,NNE,28,5.0,18.0,91,0.00,,,0.06,VWS V12.08,2013-05-04 23:18:00,
2013-05-04 18:23:00,40.2,37.8,30.18,NNE,23,11.0,18.0,91,0.00,,,0.06,VWS V12.08,2013-05-04 23:23:00,
2013-05-04 18:28:00,40.1,37.7,30.18,NNE,31,5.0,18.0,91,0.00,,,0.06,VWS V12.08,2013-05-04 23:28:00,
2013-05-04 18:33:00,40.2,38.1,30.18,NNE,13,9.0,12.0,92,0.00,,,0.06,VWS V12.08,2013-05-04 23:33:00,
2013-05-04 18:38:00,40.2,37.8,30.18,NNE,32,10.0,14.0,91,0.00,,,0.06,VWS V12.08,2013-05-04 23:38:00,
2013-05-04 18:43:00,40.0,37.6,30.19,NW,317,4.0,18.0,91,0.00,,,0.06,VWS V12.08,2013-05-04 23:43:00,
2013-05-04 18:48:00,40.0,37.9,30.19,NE,38,16.0,18.0,92,0.00,,,0.06,VWS V12.08,2013-05-04 23:48:00,
2013-05-04 18:53:00,40.0,37.9,30.19,East,89,10.0,18.0,92,0.00,,,0.06,VWS V12.08,2013-05-04 23:53:00,
2013-05-04 18:58:00,39.9,37.8,30.19,NNW,331,4.0,18.0,92,0.00,,,0.06,VWS V12.08,2013-05-04 23:58:00,
2013-05-04 19:03:00,39.9,37.8,30.19,NNE,30,10.0,15.0,92,0.00,,,0.06,VWS V12.08,2013-05-05 00:03:00,
2013-05-04 19:08:00,39.8,38.0,30.19,NNW,335,11.0,15.0,93,0.00,,,0.06,VWS V12.08,2013-05-05 00:08:00,
2013-05-04 19:13:00,39.8,38.0,30.19,NNW,337,4.0,15.0,93,0.00,,,0.06,VWS V12.08,2013-05-05 00:13:00,
2013-05-04 19:18:00,39.7,37.8,30.19,NNE,17,9.0,15.0,93,0.00,,,0.06,VWS V12.08,2013-05-05 00:18:00,
2013-05-04 19:23:00,39.6,37.8,30.19,NNW,327,10.0,16.0,93,0.00,,,0.06,VWS V12.08,2013-05-05 00:23:00,
2013-05-04 19:28:00,39.5,37.7,30.19,NW,318,11.0,16.0,93,0.00,,,0.06,VWS V12.08,2013-05-05 00:28:00,
2013-05-04 19:33:00,39.5,37.9,30.19,NW,306,7.0,14.0,94,0.00,,,0.06,VWS V12.08,2013-05-05 00:33:00,
2013-05-04 19:38:00,39.5,37.7,30.19,NNE,24,13.0,17.0,93,0.00,,,0.07,VWS V12.08,2013-05-05 00:38:00,
2013-05-04 19:43:00,39.4,37.8,30.19,NNE,20,13.0,17.0,94,0.01,,,0.07,VWS V12.08,2013-05-05 00:43:00,
2013-05-04 19:48:00,39.4,37.8,30.19,North,11,4.0,17.0,94,0.01,,,0.07,VWS V12.08,2013-05-05 00:48:00,
2013-05-04 19:53:00,39.2,37.6,30.19,NNE,20,14.0,19.0,94,0.01,,,0.07,VWS V12.08,2013-05-05 00:53:00,
2013-05-04 19:58:00,39.2,37.6,30.19,NNW,336,5.0,19.0,94,0.01,,,0.07,VWS V12.08,2013-05-05 00:58:00,
2013-05-04 20:03:00,39.2,37.6,30.20,SSW,209,5.0,15.0,94,0.01,,,0.07,VWS V12.08,2013-05-05 01:03:00,
2013-05-04 20:08:00,39.1,37.5,30.19,NE,38,10.0,18.0,94,0.01,,,0.07,VWS V12.08,2013-05-05 01:08:00,
2013-05-04 20:13:00,39.1,37.5,30.20,NNE,18,10.0,18.0,94,0.01,,,0.07,VWS V12.08,2013-05-05 01:13:00,
2013-05-04 20:18:00,39.2,37.6,30.20,NW,325,6.0,18.0,94,0.01,,,0.07,VWS V12.08,2013-05-05 01:18:00,
2013-05-04 20:23:00,39.1,37.5,30.20,NW,317,9.0,18.0,94,0.01,,,0.07,VWS V12.08,2013-05-05 01:23:00,
2013-05-04 20:28:00,39.1,37.5,30.20,NNE,30,9.0,18.0,94,0.01,,,0.07,VWS V12.08,2013-05-05 01:28:00,
2013-05-04 20:33:00,39.0,37.4,30.20,WNW,288,3.0,14.0,94,0.01,,,0.07,VWS V12.08,2013-05-05 01:33:00,
2013-05-04 20:38:00,39.0,37.4,30.20,NNE,31,13.0,16.0,94,0.01,,,0.07,VWS V12.08,2013-05-05 01:38:00,
2013-05-04 20:43:00,39.0,37.4,30.20,NNE,27,4.0,16.0,94,0.01,,,0.07,VWS V12.08,2013-05-05 01:43:00,
2013-05-04 20:48:00,39.0,37.4,30.20,NE,40,6.0,16.0,94,0.01,,,0.07,VWS V12.08,2013-05-05 01:48:00,
2013-05-04 20:53:00,39.0,37.4,30.20,NNE,23,13.0,17.0,94,0.01,,,0.07,VWS V12.08,2013-05-05 01:53:00,
2013-05-04 20:58:00,38.9,37.3,30.20,NE,43,10.0,17.0,94,0.01,,,0.07,VWS V12.08,2013-05-05 01:58:00,
2013-05-04 21:03:00,38.9,37.3,30.21,NE,46,4.0,14.0,94,0.00,,,0.07,VWS V12.08,2013-05-05 02:03:00,
2013-05-04 21:08:00,38.9,37.3,30.21,North,350,5.0,14.0,94,0.00,,,0.07,VWS V12.08,2013-05-05 02:08:00,
2013-05-04 21:13:00,38.9,37.3,30.21,NNE,17,11.0,15.0,94,0.00,,,0.07,VWS V12.08,2013-05-05 02:13:00,
2013-05-04 21:18:00,38.8,37.2,30.21,North,350,3.0,15.0,94,0.00,,,0.07,VWS V12.08,2013-05-05 02:18:00,
2013-05-04 21:23:00,38.8,37.5,30.21,NNE,23,11.0,15.0,95,0.00,,,0.07,VWS V12.08,2013-05-05 02:23:00,
2013-05-04 21:28:00,38.8,37.5,30.21,NNW,346,9.0,15.0,95,0.00,,,0.07,VWS V12.08,2013-05-05 02:28:00,
2013-05-04 21:33:00,38.7,37.4,30.21,NNE,24,5.0,16.0,95,0.00,,,0.07,VWS V12.08,2013-05-05 02:33:00,
2013-05-04 21:38:00,38.7,37.4,30.21,NNE,25,6.0,16.0,95,0.00,,,0.07,VWS V12.08,2013-05-05 02:38:00,
2013-05-04 21:43:00,38.7,37.4,30.21,NNW,344,10.0,16.0,95,0.00,,,0.07,VWS V12.08,2013-05-05 02:43:00,
2013-05-04 21:48:00,38.7,37.4,30.21,NE,40,11.0,16.0,95,0.00,,,0.07,VWS V12.08,2013-05-05 02:48:00,
2013-05-04 21:53:00,38.7,37.4,30.21,NE,36,9.0,16.0,95,0.00,,,0.07,VWS V12.08,2013-05-05 02:53:00,
2013-05-04 21:58:00,38.7,37.4,30.21,NNE,23,7.0,16.0,95,0.00,,,0.07,VWS V12.08,2013-05-05 02:58:00,
2013-05-04 22:03:00,38.6,37.3,30.21,NNW,334,6.0,19.0,95,0.00,,,0.07,VWS V12.08,2013-05-05 03:03:00,
2013-05-04 22:08:00,38.6,37.3,30.21,North,11,11.0,19.0,95,0.00,,,0.07,VWS V12.08,2013-05-05 03:08:00,
2013-05-04 22:13:00,38.5,37.2,30.21,South,183,11.0,19.0,95,0.00,,,0.07,VWS V12.08,2013-05-05 03:13:00,
2013-05-04 22:18:00,38.5,37.5,30.21,NNE,28,6.0,19.0,96,0.00,,,0.07,VWS V12.08,2013-05-05 03:18:00,
2013-05-04 22:23:00,38.5,37.5,30.21,NNE,22,9.0,19.0,96,0.00,,,0.07,VWS V12.08,2013-05-05 03:23:00,
2013-05-04 22:28:00,38.5,37.5,30.21,NNE,25,7.0,19.0,96,0.00,,,0.07,VWS V12.08,2013-05-05 03:28:00,
2013-05-04 22:33:00,38.5,37.5,30.21,NNE,20,12.0,15.0,96,0.00,,,0.07,VWS V12.08,2013-05-05 03:33:00,
2013-05-04 22:38:00,38.5,37.2,30.21,NNE,18,9.0,15.0,95,0.00,,,0.07,VWS V12.08,2013-05-05 03:38:00,
2013-05-04 22:43:00,38.5,37.2,30.21,ENE,62,4.0,15.0,95,0.00,,,0.07,VWS V12.08,2013-05-05 03:43:00,
2013-05-04 22:48:00,38.5,37.2,30.21,NE,50,10.0,15.0,95,0.00,,,0.07,VWS V12.08,2013-05-05 03:48:00,
2013-05-04 22:53:00,38.5,37.2,30.21,North,355,9.0,15.0,95,0.00,,,0.07,VWS V12.08,2013-05-05 03:53:00,
2013-05-04 22:58:00,38.5,37.2,30.21,NNE,28,17.0,18.0,95,0.00,,,0.07,VWS V12.08,2013-05-05 03:58:00,
2013-05-04 23:01:00,38.5,37.2,30.21,NNE,18,3.0,3.0,95,0.00,,,0.07,VWS V12.08,2013-05-05 04:01:00,
2013-05-04 23:06:00,38.5,37.2,30.21,North,11,5.0,12.0,95,0.00,,,0.07,VWS V12.08,2013-05-05 04:06:00,
2013-05-04 23:11:00,38.5,37.2,30.21,North,355,6.0,12.0,95,0.00,,,0.07,VWS V12.08,2013-05-05 04:11:00,
2013-05-04 23:16:00,38.5,37.5,30.21,NE,53,3.0,12.0,96,0.00,,,0.07,VWS V12.08,2013-05-05 04:16:00,
2013-05-04 23:21:00,38.5,37.2,30.20,NNW,347,8.0,14.0,95,0.00,,,0.07,VWS V12.08,2013-05-05 04:21:00,
2013-05-04 23:26:00,38.5,37.2,30.20,NE,42,5.0,14.0,95,0.00,,,0.07,VWS V12.08,2013-05-05 04:26:00,
2013-05-04 23:37:00,38.4,37.1,30.21,NNE,30,6.0,14.0,95,0.00,,,0.07,VWS V12.08,2013-05-05 04:37:00,
2013-05-04 23:42:00,38.4,37.4,30.21,NNE,32,5.0,14.0,96,0.00,,,0.07,VWS V12.08,2013-05-05 04:42:00,
2013-05-04 23:47:00,38.4,37.4,30.21,NNE,24,7.0,14.0,96,0.00,,,0.07,VWS V12.08,2013-05-05 04:47:00,
2013-05-04 23:52:00,38.4,37.4,30.21,NE,40,5.0,14.0,96,0.00,,,0.07,VWS V12.08,2013-05-05 04:52:00,
2013-05-04 23:57:00,38.4,37.4,30.21,NE,41,10.0,14.0,96,0.00,,,0.07,VWS V12.08,2013-05-05 04:57:00,